UAE14X EDDF-OMDB

Flight info

Callsign UAE14X
Flight time N/A
Altitude 37000
Route TOBAK8F/25C TOBAK N858 SWALM T201 TAMEB DCT NEVKO DCT OMELO DCT VOZ DCT PISAM DCT TEKNO DCT KEROP DCT NISVA DCT VANET DCT NIKTI DCT LMO DCT RIKSO DCT YOYYO UG80 BANRO DCT VANZA DCT LAKTO L560 GIRBA/N0480F390 L560 SILKA M872 BDB Y214 RAPMA DCT KUVSO DCT KATIT DCT PEKEM M628 RIGIL G783 ELUDA/N0501F350 G783 ASPED Q308 KIPOK Q568 IMPED
Aircraft A35K/H-SDE2E3GHIJ3J4J5LM1ORWXY/LB1D1

Departure

Time 2026-04-14 07:11
Airport Frankfurt Main Airport (EDDF)

Arrival

Time N/A
Airport Dubai International Airport (OMDB)
Time Latitude Longitude Altitude Speed Heading
2026-04-14 06:46 50.04749 8.56391 367 ft 0 kts 341°
2026-04-14 06:49 50.04750 8.56391 367 ft 0 kts 341°
2026-04-14 06:50 50.04749 8.56391 363 ft 0 kts 341°
2026-04-14 07:00 50.04750 8.56391 336 ft 1 kts 341°
2026-04-14 07:01 50.04751 8.56390 336 ft 0 kts 341°
2026-04-14 07:01 50.04739 8.56397 366 ft 2 kts 341°
2026-04-14 07:01 50.04724 8.56405 364 ft 2 kts 341°
2026-04-14 07:01 50.04721 8.56406 364 ft 0 kts 341°
2026-04-14 07:02 50.04722 8.56405 364 ft 1 kts 339°
2026-04-14 07:02 50.04707 8.56418 365 ft 3 kts 307°
2026-04-14 07:02 50.04699 8.56443 363 ft 3 kts 274°
2026-04-14 07:03 50.04699 8.56465 364 ft 0 kts 249°
2026-04-14 07:05 50.04700 8.56471 364 ft 1 kts 239°
2026-04-14 07:05 50.04689 8.56441 363 ft 5 kts 240°
2026-04-14 07:05 50.04662 8.56377 371 ft 9 kts 236°
2026-04-14 07:05 50.04629 8.56274 371 ft 12 kts 248°
2026-04-14 07:06 50.04591 8.56129 372 ft 16 kts 248°
2026-04-14 07:06 50.04537 8.55979 369 ft 15 kts 217°
2026-04-14 07:06 50.04430 8.55921 367 ft 18 kts 192°
2026-04-14 07:06 50.04307 8.55947 362 ft 19 kts 172°
2026-04-14 07:07 50.04172 8.55933 362 ft 21 kts 167°
2026-04-14 07:07 50.04082 8.56037 362 ft 8 kts 93°
2026-04-14 07:07 50.04095 8.56144 359 ft 12 kts 71°
2026-04-14 07:07 50.04129 8.56292 357 ft 18 kts 70°
2026-04-14 07:08 50.04178 8.56493 361 ft 21 kts 69°
2026-04-14 07:08 50.04232 8.56717 358 ft 23 kts 69°
2026-04-14 07:08 50.04292 8.56962 365 ft 26 kts 69°
2026-04-14 07:08 50.04362 8.57249 361 ft 30 kts 69°
2026-04-14 07:09 50.04438 8.57573 354 ft 33 kts 70°
2026-04-14 07:09 50.04520 8.57923 352 ft 36 kts 70°
2026-04-14 07:09 50.04609 8.58295 353 ft 35 kts 70°
2026-04-14 07:09 50.04618 8.58583 330 ft 23 kts 137°
2026-04-14 07:10 50.04497 8.58572 331 ft 16 kts 227°
2026-04-14 07:10 50.04479 8.58527 331 ft 0 kts 243°
2026-04-14 07:10 50.04479 8.58526 331 ft 1 kts 243°
2026-04-14 07:10 50.04425 8.58345 333 ft 61 kts 246°
2026-04-14 07:11 50.04151 8.57191 364 ft 163 kts 251°
2026-04-14 07:11 50.03714 8.55403 1332 ft 182 kts 250°
2026-04-14 07:11 50.03229 8.53406 2447 ft 210 kts 253°
2026-04-14 07:11 50.02765 8.51217 3612 ft 215 kts 262°
2026-04-14 07:12 50.02742 8.48913 4404 ft 218 kts 279°
2026-04-14 07:12 50.02936 8.46490 4865 ft 230 kts 280°
2026-04-14 07:12 50.03181 8.44024 4983 ft 230 kts 284°
2026-04-14 07:12 50.03811 8.41779 4987 ft 228 kts 309°
2026-04-14 07:13 50.05016 8.39993 4974 ft 250 kts 323°
2026-04-14 07:13 50.06437 8.38338 4972 ft 257 kts 324°
2026-04-14 07:13 50.07859 8.36697 4985 ft 258 kts 324°
2026-04-14 07:13 50.09296 8.35022 4985 ft 258 kts 324°
2026-04-14 07:14 50.10829 8.33577 4977 ft 258 kts 338°
2026-04-14 07:14 50.12571 8.33001 4980 ft 257 kts 359°
2026-04-14 07:14 50.14323 8.33426 4977 ft 255 kts 15°
2026-04-14 07:14 50.16020 8.34229 4978 ft 255 kts 17°
2026-04-14 07:15 50.17710 8.35060 4982 ft 254 kts 16°
2026-04-14 07:15 50.19386 8.35873 4984 ft 254 kts 17°
2026-04-14 07:15 50.21078 8.36686 5025 ft 254 kts 16°
2026-04-14 07:15 50.22770 8.37493 5324 ft 258 kts 16°
2026-04-14 07:16 50.24501 8.38317 6124 ft 261 kts 16°
2026-04-14 07:16 50.26251 8.39149 6995 ft 265 kts 15°
2026-04-14 07:16 50.28036 8.40028 7775 ft 273 kts 18°
2026-04-14 07:16 50.29757 8.41432 8537 ft 284 kts 34°
2026-04-14 07:17 50.31229 8.43340 9316 ft 290 kts 40°
2026-04-14 07:17 50.32721 8.45437 10090 ft 296 kts 41°
2026-04-14 07:17 50.34317 8.47682 10492 ft 314 kts 41°
2026-04-14 07:17 50.35972 8.49997 10765 ft 332 kts 41°
2026-04-14 07:18 50.37744 8.52467 11038 ft 350 kts 41°
2026-04-14 07:18 50.39608 8.55063 11327 ft 365 kts 41°
2026-04-14 07:18 50.40874 8.56828 11605 ft 371 kts 41°
2026-04-14 07:18 50.42826 8.59548 12162 ft 377 kts 41°
2026-04-14 07:19 50.45452 8.63205 12935 ft 383 kts 41°
2026-04-14 07:19 50.47504 8.65923 13508 ft 387 kts 39°
2026-04-14 07:19 50.49593 8.68636 14065 ft 391 kts 39°
2026-04-14 07:19 50.51699 8.71383 14616 ft 395 kts 39°
2026-04-14 07:20 50.53101 8.73220 14971 ft 397 kts 39°
2026-04-14 07:20 50.55233 8.76024 15517 ft 400 kts 40°
2026-04-14 07:20 50.57377 8.78849 16019 ft 405 kts 40°
2026-04-14 07:20 50.59549 8.81714 16539 ft 408 kts 40°
2026-04-14 07:21 50.61745 8.84608 17115 ft 411 kts 40°
2026-04-14 07:21 50.63947 8.87508 17650 ft 414 kts 40°
2026-04-14 07:21 50.66168 8.90430 18178 ft 417 kts 40°
2026-04-14 07:21 50.68407 8.93376 18660 ft 421 kts 40°
2026-04-14 07:22 50.70628 8.96297 19088 ft 424 kts 40°
2026-04-14 07:22 50.72902 8.99291 19552 ft 426 kts 40°
2026-04-14 07:22 50.75186 9.02300 20009 ft 429 kts 40°
2026-04-14 07:22 50.77483 9.05329 20450 ft 431 kts 40°
2026-04-14 07:23 50.79793 9.08376 20911 ft 434 kts 40°
2026-04-14 07:23 50.82122 9.11450 21398 ft 437 kts 40°
2026-04-14 07:23 50.84460 9.14539 21866 ft 440 kts 40°
2026-04-14 07:23 50.86815 9.17655 22322 ft 443 kts 40°
2026-04-14 07:24 50.89192 9.20802 22772 ft 445 kts 40°
2026-04-14 07:24 50.91579 9.23964 23198 ft 448 kts 40°
2026-04-14 07:24 50.93981 9.27147 23604 ft 451 kts 40°
2026-04-14 07:24 50.96395 9.30350 23954 ft 454 kts 40°
2026-04-14 07:25 50.98827 9.33575 24265 ft 457 kts 40°
2026-04-14 07:25 51.01275 9.36820 24590 ft 460 kts 40°
2026-04-14 07:25 51.03703 9.40041 24947 ft 462 kts 40°